This demonstration page uses our WeatherBlox Daily Observations layout. Learn more.

Left ArrowRight Arrow

41.86663, -103.66717

Hourly Observations for November 12, 2016

Temp ( °F °C ) Dew Point ( °F °C ) Humidity (%) Winds ( mph kmh ) Pressure ( in mb ) Visibility ( mi km ) Precip ( " mm )
12:53 am 00:53 Clear with Light Snow 37 2.8 23 -5 57 57 ESE 12 19 30.27 1025 9 14 N/A
1:53 am 01:53 Clear with Light Snow 34 1.1 22 -5.6 61 61 E 10 17 30.27 1025 9 14 N/A
2:53 am 02:53 Clear with Light Snow 34 1.1 22 -5.6 61 61 ESE 12 19 30.24 1024 9 14 N/A
3:53 am 03:53 Clear with Light Snow 30 -1.1 21 -6.1 69 69 E 8 13 30.24 1024 9 14 N/A
4:53 am 04:53 Clear with Light Snow 33 0.6 22 -5.6 64 64 ESE 12 19 30.24 1024 9 14 N/A
5:53 am 05:53 Clear with Light Snow 31 -0.6 22 -5.6 69 69 E 8 13 30.25 1024 9 14 N/A
6:53 am 06:53 Sunny with Light Snow 32 undefined 22 -5.6 66 66 E 9 15 30.25 1024 9 14 N/A
7:53 am 07:53 Sunny with Light Snow 37 2.8 24 -4.4 59 59 E 9 15 30.24 1024 9 14 N/A
8:53 am 08:53 Sunny 42 5.6 25 -3.9 51 51 ESE 8 13 30.22 1024 10 16 N/A
9:53 am 09:53 Sunny 48 8.9 27 -2.8 44 44 ESE 5 7 30.19 1022 10 16 N/A
10:53 am 10:53 Sunny 54 12.2 28 -2.2 37 37 ESE 7 11 30.15 1021 10 16 N/A
11:53 am 11:53 Sunny 61 16.1 30 -1.1 31 31 ESE 8 13 30.08 1019 10 16 N/A
12:53 pm 12:53 Sunny 66 18.9 30 -1.1 26 26 ESE 9 15 30.02 1017 10 16 N/A
1:53 pm 13:53 Sunny 71 21.7 31 -0.6 23 23 E 7 11 29.98 1015 10 16 N/A
2:53 pm 14:53 Sunny 74 23.3 29 -1.7 19 19 E 5 7 29.96 1014 10 16 N/A
3:53 pm 15:53 Sunny 69 20.6 29 -1.7 22 22 SSE 13 20 29.97 1015 10 16 N/A
4:53 pm 16:53 Clear 53 11.7 28 -2.2 38 38 ESE 8 13 30.01 1016 10 16 N/A
5:53 pm 17:53 Clear 53 11.7 28 -2.2 38 38 SE 9 15 30.04 1017 10 16 N/A
6:53 pm 18:53 Clear 49 9.4 27 -2.8 43 43 SE 5 7 30.04 1017 10 16 N/A
7:53 pm 19:53 Clear 44 6.7 26 -3.3 49 49 E 6 9 30.04 1017 10 16 N/A
8:53 pm 20:53 Clear 44 6.7 27 -2.8 51 51 E 9 15 30.03 1017 10 16 N/A
9:53 pm 21:53 Clear 43 6.1 27 -2.8 53 53 E 9 15 30.01 1016 10 16 N/A
10:53 pm 22:53 Clear 42 5.6 27 -2.8 55 55 E 9 15 30.00 1016 10 16 N/A
11:53 pm 23:53 Clear 38 3.3 26 -3.3 62 62 ENE 7 11 29.99 1016 10 16 N/A

Powered by AerisWeather